Volver al catálogo

CZ-6A DEB

ActivoSSO
NORAD 54462·DEBRIS·🇨🇳 China

Lanzado Nov 11, 2022 desde Taiyuan Satellite Launch Center

Loading…

Próximos Pases (próximas 24 horas)

TLE

ActualizadoSource: Space-Track

Época: Sep 14, 2026, 07:28 UTC

1 54462U 22151GN  26257.31156581  .00002804  00000-0  14380-2 0  9996
2 54462  98.7094 216.1405 0154292  53.6184 307.9109 14.10212066196322

Sigue CZ-6A DEB en tiempo real con AllMySat

Download on the App Store